EDT,Max TemperatureF,Mean TemperatureF,Min TemperatureF,Max Dew PointF,MeanDew PointF,Min DewpointF,Max Humidity, Mean Humidity, Min Humidity, Max Sea Level PressureIn, Mean Sea Level PressureIn, Min Sea Level PressureIn, Max VisibilityMiles, Mean VisibilityMiles, Min VisibilityMiles, Max Wind SpeedMPH, Mean Wind SpeedMPH, Max Gust SpeedMPH,PrecipitationIn, CloudCover, Events, WindDirDegrees
2012-9-1,78,74,71,72,63,61,78,65,54,30.12,30.08,30.03,10,10,7,9,3,,0.00,3,,62
2012-9-2,82,76,71,73,67,59,89,75,61,30.05,30.00,29.95,10,10,10,9,4,,0.00,4,,60
2012-9-3,84,76,69,75,71,63,94,82,70,29.97,29.93,29.87,10,9,5,13,6,17,0.00,1,,83
2012-9-4,80,76,71,73,72,70,94,89,74,29.91,29.87,29.84,10,5,1,14,1,22,0.29,4,Rain,18
2012-9-5,78,73,68,73,70,66,94,86,74,29.90,29.85,29.78,10,7,0,12,2,,0.00,2,Fog-Rain,176
2012-9-6,80,74,69,72,69,66,94,83,61,29.91,29.87,29.81,10,8,3,8,1,,0.00,2,,163
2012-9-7,80,71,62,70,63,55,94,73,44,29.91,29.82,29.68,10,10,10,16,5,20,0.00,1,Rain,226
2012-9-8,73,66,59,66,55,48,94,69,41,29.85,29.72,29.62,10,10,4,17,11,26,0.30,6,Rain,295
2012-9-9,73,63,53,54,49,39,94,62,33,30.09,29.95,29.84,10,10,10,10,2,17,0.00,2,,317
2012-9-10,71,61,51,55,50,45,88,64,40,30.23,30.17,30.09,10,10,10,10,2,,0.00,0,,181
2012-9-11,78,68,57,64,58,54,88,68,50,30.23,30.19,30.14,10,10,7,17,6,,0.00,0,,191
2012-9-12,78,70,62,70,61,54,88,69,54,30.25,30.20,30.16,10,10,10,14,8,18,0.00,0,,178
2012-9-13,82,74,66,66,62,55,83,67,44,30.26,30.21,30.17,10,10,10,16,6,20,0.00,4,,187
2012-9-14,73,64,55,64,54,43,94,72,35,30.27,30.23,30.19,10,10,7,14,8,21,0.28,4,Rain,330
2012-9-15,71,61,51,55,49,46,88,64,41,30.32,30.25,30.16,10,10,10,9,5,,0.00,0,,311
2012-9-16,75,65,55,63,54,46,88,67,46,30.16,30.09,30.02,10,10,10,14,5,,0.00,0,,190
2012-9-17,73,68,62,64,58,52,94,68,53,30.03,29.90,29.72,10,10,10,21,6,26,0.04,2,Rain,173
2012-9-18,68,60,51,66,52,37,94,73,51,29.96,29.72,29.58,10,8,3,18,10,30,0.11,6,Rain,283
2012-9-19,66,55,44,46,41,37,87,59,37,30.12,30.05,29.97,10,10,10,25,8,31,0.00,1,,201
2012-9-20,69,61,53,55,49,45,88,62,52,30.00,29.91,29.85,10,10,7,23,14,29,0.19,5,Rain,202
2012-9-21,71,61,51,54,47,37,88,66,31,29.93,29.88,29.76,10,10,7,21,4,26,0.10,2,Rain,217
2012-9-22,60,54,48,52,49,45,94,82,59,30.08,29.85,29.72,10,10,7,13,4,21,0.05,5,Rain,261
2012-9-23,60,53,46,46,42,36,93,71,42,30.21,30.14,30.08,10,10,5,13,5,18,0.00,6,Rain,277
2012-9-24,64,53,42,43,37,30,87,57,28,30.20,30.09,29.94,10,10,10,20,6,25,0.00,0,,218
2012-9-25,66,58,51,61,49,37,94,69,51,29.98,29.92,29.87,10,10,7,16,7,,0.00,5,,186
2012-9-26,69,63,55,64,59,46,100,86,67,30.14,29.98,29.89,10,5,1,13,5,,0.00,5,,97
2012-9-27,68,60,51,48,44,41,82,61,40,30.22,30.18,30.14,10,9,3,14,7,17,0.00,2,,40
2012-9-28,69,58,48,52,49,43,94,72,38,30.17,30.12,30.07,10,10,4,10,3,,0.00,4,,97
2012-9-29,69,58,48,55,50,43,93,76,40,30.09,30.00,29.92,10,9,1,10,2,,0.00,2,,156
2012-9-30,66,57,48,54,47,43,94,71,45,29.95,29.92,29.89,10,10,10,17,7,20,0.00,2,,6